Flag for India Weather past 2 weeks in Allahabad, Uttar Pradesh, India

Now
50 °F

Fog.


Feels Like: 50 °F
Forecast: 56 / 79 °F
Wind: 2 mph from East

Location: Varanasi / Babatpur

Current Time: Feb 2, 2015 at 5:52:59 AM

Latest Report: Feb 2, 2015 at 5:00 AM


Visibility: 1 mi

Pressure: 30.09 "Hg

Humidity: 88%

Dew point: 46 °F

Location of AllahabadLocation

Historic Weather in Allahabad — Graph

°F

Allahabad temperature yesterday

Maximum temperature yesterday: 72 °F (at 2:00 PM)
Minimum temperature yesterday: 48 °F (at 7:00 AM)
Average temperature yesterday: 59 °F

Past Weeks' High & Low Weather Summary

 TemperatureHumidityPressure
High73 °F (Jan 23, 3:00 PM)100% (Jan 18, 4:00 AM)30.24 "Hg (Jan 18, 4:00 AM)
Low41 °F (Jan 21, 6:00 AM)36% (Feb 1, 3:00 PM)29.89 "Hg (Jan 22, 12:00 AM)
Average58 °F84%30.08 "Hg
* Reported Jan 18 4:00 AM — Feb 2 4:00 AM, Allahabad, Weather by CustomWeather, © 2014

Note: Actual official high and low records may vary slightly from our data, if they occured in-between our weather recording intervals... More about our weather records

Advertising

Allahabad weather history for previous 24 hours

 ConditionsComfort  
Time TempWeatherWind HumidityBarometerVisibility
4:00 AM
Feb 2
52 °FFog.2 mph82%30.04 "Hg1 mi
12:00 AM57 °FFog.No wind77%30.07 "Hg1 mi
11:00 PM
Feb 1
57 °FFog.No wind77%30.07 "Hg1 mi
10:00 PM59 °FHaze.No wind77%30.07 "Hg1 mi
9:00 PM59 °FHaze.No wind77%30.07 "Hg1 mi
8:00 PM61 °FHaze.No wind72%30.07 "Hg2 mi
7:00 PM63 °FHaze.No wind68%30.04 "Hg2 mi
5:00 PM68 °FHaze.No wind46%30.04 "Hg2 mi
4:00 PM70 °FHaze.2 mph40%30.04 "Hg2 mi
3:00 PM72 °FHaze.3 mph36%30.04 "Hg3 mi
2:00 PM72 °FHaze.3 mph38%30.04 "Hg3 mi
12:00 PM64 °FHaze.3 mph68%30.12 "Hg3 mi
10:00 AM59 °FHaze.2 mph68%30.12 "Hg1 mi
9:30 AM55 °FFog.No wind77%30.12 "Hg1 mi
9:00 AM54 °FFog.1 mph77%30.12 "Hg1 mi
8:00 AM52 °FFog.No wind88%30.09 "Hg1 mi
7:00 AM48 °FFog.No wind94%30.09 "Hg1 mi
5:00 AM50 °FFog.No wind88%30.07 "Hg1 mi
Weather by CustomWeather, © 2014

See weather overviewHow to use our weather pages